Regional Weather Roundup
Issued by NWS Sterling, VA

Home | Current Version | Previous Version | Text Only | Print | Product List | Glossary Off
Versions: 1 2 3 4 5 6 7 8 9 10 11 12 13 14 15 16 17 18 19 20 21 22 23 24 25 26 27 28 29 30 31 32 33 34 35 36 37 38 39 40 41 42 43 44 45 46 47 48 49 50

000
ASUS41 KLWX 210910
RWRLWX

REGIONAL WEATHER ROUNDUP
NATIONAL WEATHER SERVICE BALTIMORE MD/WASHINGTON DC
400 AM EST SUN DEC 21 2014

Note: "FAIR" indicates few or no clouds below 12,000 feet
with no significant weather and/or obstructions to visibility.
 TC=TEMPERATURE CELSIUS

 * =Non NWS site. Station does not report precipitation (e.g. rain,
    snow, etc.), thunder, or fog.

DCZ001-MDZ009-015-VAZ040>042-051-053>054-211000-
WASHINGTON METRO

CITY           SKY/WX    TMP DP  RH WIND       PRES   REMARKS
WASHINGTON NAT CLOUDY    37  23  56 NE5       30.32F
DULLES         CLOUDY    32  23  69 CALM      30.30S
ANDREWS AFB    CLOUDY    32  26  78 CALM      30.29F
FT BELVOIR     CLOUDY    32  28  84 CALM      30.32S
QUANTICO       CLOUDY    33  26  75 NW3       30.32F
COLLEGE PARK*  CLOUDY    34  27  75 CALM      30.30F
LEESBURG*      CLOUDY    32  28  86 CALM      30.31S
MANASSAS*      CLOUDY    32  28  86 CALM      30.31S
GAITHERSBURG*  CLOUDY    30  21  69 CALM      30.32F

$$

MDZ006>007-011-014-211000-
BALTIMORE METRO

CITY           SKY/WX    TMP DP  RH WIND       PRES   REMARKS
BWI AIRPORT    CLOUDY    31  25  78 CALM      30.30F
MD SCIENCE CTR   N/A     34  23  64 MISG      30.31F
MARTIN STATE   MOCLDY    32  28  86 CALM      30.32F
ANNAPOLIS      CLOUDY    35  27  72 N3        30.30F
FORT MEADE*    CLOUDY    32  28  86 CALM      30.32F

$$

MDZ012-015-019>023-211000-
MARYLAND EASTERN SHORE

CITY           SKY/WX    TMP DP  RH WIND       PRES   REMARKS
OCEAN CITY     CLOUDY    31  27  85 CALM      30.30S
SALISBURY      CLOUDY    31  26  82 CALM      30.30S
BAY BRIDGE AP*   N/A     32  28  86 CALM      30.31F
CAMBRIDGE*     CLOUDY    32  28  86 CALM      30.30S
EASTON*        MOCLDY    32  32 100 CALM      30.34S

$$

MDZ017>025-211000-
SOUTHERN MARYLAND

CITY           SKY/WX    TMP DP  RH WIND       PRES   REMARKS
PATUXENT RIVER CLOUDY    33  26  75 W5        30.30S
ST INIGOES     CLOUDY    33  26  75 CALM      30.30S
LEONARDTOWN*   CLOUDY    32  25  74 CALM      30.32S

$$

MDZ003>005-211000-
NORTH CENTRAL MARYLAND

CITY           SKY/WX    TMP DP  RH WIND       PRES   REMARKS
FREDERICK*     NOT AVBL
HAGERSTOWN APT CLOUDY    29  23  78 NW5       30.29R
WESTMINSTER*   CLOUDY    28  23  80 CALM      30.27S

$$

MDZ501>502-211000-
WESTERN MARYLAND

CITY           SKY/WX    TMP DP  RH WIND       PRES   REMARKS
OAKLAND*       CLOUDY    23 N/A N/A W5        30.16S
CUMBERLAND*    CLOUDY    32  28  86 CALM      30.32S

$$

VAZ025>031-211000-
SHENANDOAH VALLEY

CITY           SKY/WX    TMP DP  RH WIND       PRES   REMARKS
WINCHESTER*    CLOUDY    32  21  64 CALM      30.28S
FRONT ROYAL*   CLOUDY    32  25  74 CALM      30.28R
LURAY*         CLOUDY    32  28  86 CALM      30.26S
NEW MARKET*    CLOUDY    31  24  76 CALM      30.26R
STAUNTON*      CLOUDY    32  27  80 CALM      30.26S
WAYNESBORO*    CLOUDY    31  26  82 CALM      30.23S

$$

WVZ021-048>050-054>055-211000-
EASTERN WEST VIRGINIA PANHANDLE

CITY           SKY/WX    TMP DP  RH WIND       PRES   REMARKS
MARTINSBURG    CLOUDY    32  21  64 N3        30.29S
PETERSBURG*    CLOUDY    31  26  81 CALM      30.28S

$$

VAZ036>039-050-211000-
CENTRAL FOOTHILLS

CITY           SKY/WX    TMP DP  RH WIND       PRES   REMARKS
CHARLOTTESVILL CLOUDY    32  26  78 CALM      30.27F
CULPEPER*      CLOUDY    32  30  93 CALM      30.30F
ORANGE*        CLOUDY    34  30  86 CALM      30.30F
GORDONSVILLE*  CLOUDY    32  28  87 CALM      30.28F
WARRENTON*     CLOUDY    32  32  99 CALM      30.29F

$$

VAZ055>057-211000-
NORTH AND CENTRAL PIEDMONT

CITY           SKY/WX    TMP DP  RH WIND       PRES   REMARKS
FREDERICKSBRG* CLOUDY    34  28  80 CALM      30.30F
STAFFORD*      CLOUDY    32  28  84 CALM      30.34F

$$

NCZ024-NYZ072-PAZ021-071-VAZ022-071-211000-
OTHER REGIONAL OBSERVATIONS

CITY           SKY/WX    TMP DP  RH WIND       PRES   REMARKS
NEW YORK CITY  CLOUDY    31  22  69 NW3       30.30S
PHILADELPHIA   CLOUDY    33  23  66 CALM      30.31S
PITTSBURGH     CLOUDY    28  21  75 CALM      30.27S
ROANOKE        CLOUDY    35  27  72 CALM      30.25F
RICHMOND       CLOUDY    36  26  67 CALM      30.30S
RALEIGH        CLOUDY    38  34  85 NE3       30.27F FOG

$$

ANZ530>537-211000-
MARINE OBSERVATIONS

STATION/POSITION TIME  TEMP    WIND        PRES
                       AIR SEA DIR/SP/G
                 (UTC) (F)     (DEG/KT/KT) (MB)
THOMAS PT LIGHT  0900   35 41   20/  3/  3 1027.2F
BALT KEY BRIDGE  0900   34     360/  3/  4 1026.4F
COVE POINT       0900   34     310/  4/  5 1025.9F
LEWISETTA        0900   35 40  300/  3/  4 1025.9F
SOLOMONS ISLAND  0900      42                N/A

$$




USA.gov is the U.S. government's official web portal to all federal, state and local government web resources and services.